GW1804 Weather Reports


time (UTC)temp
F
wind
direction
speed
knots
gust
knots
rain 1hr
in
rain 24hr
in
rain mn
in
humidity
%
barometer
mb
20260906073052 72 0 0.0 0.9 0.00 0.00 0.00 86 1012.5
20260906072536 72 0 0.0 0.9 0.00 0.00 0.00 86 1012.6
20260906072035 72 0 0.0 0.9 0.00 0.00 0.00 86 1012.6
20260906071551 72 0 0.0 0.9 0.00 0.00 0.00 86 1012.7
20260906071035 72 322 0.0 0.9 0.00 0.00 0.00 86 1012.7
20260906070536 72 0 0.0 0.9 0.00 0.00 0.00 86 1012.5
20260906065538 72 0 0.0 1.7 0.00 0.00 0.00 86 1012.6
20260906065034 72 322 0.0 1.7 0.00 0.00 0.00 85 1012.6
20260906064555 72 322 0.0 0.9 0.00 0.00 0.00 85 1012.5
20260906064036 72 0 0.0 1.7 0.00 0.00 0.00 85 1012.7
20260906063535 72 0 0.0 1.7 0.00 0.00 0.00 85 1012.5
20260906063053 72 0 0.0 1.7 0.00 0.00 0.00 85 1012.5
20260906062535 72 0 0.0 2.6 0.00 0.00 0.00 85 1012.7
20260906062037 72 0 0.9 2.6 0.00 0.00 0.00 85 1012.7
20260906061605 72 352 0.0 1.7 0.00 0.00 0.00 85 1012.7
20260906061035 73 0 0.0 3.5 0.00 0.00 0.00 85 1012.6
20260906060535 73 0 0.9 3.5 0.00 0.00 0.00 85 1012.6
20260906060150 73 303 1.7 3.5 0.00 0.00 0.00 85 1012.6
20260906055535 73 303 1.7 2.6 0.00 0.00 0.00 85 1012.5
20260906055035 73 306 0.9 3.5 0.00 0.00 0.00 84 1012.6
20260906054554 73 0 0.9 3.5 0.00 0.00 0.00 84 1012.5
20260906054037 73 295 0.0 2.6 0.00 0.00 0.00 83 1012.6
20260906053535 73 320 0.9 2.6 0.00 0.00 0.00 83 1012.6
20260906053053 73 294 0.0 1.7 0.00 0.00 0.00 82 1012.6
20260906052536 73 0 0.0 2.6 0.00 0.00 0.00 81 1012.6
20260906052037 73 306 0.9 2.6 0.00 0.00 0.00 81 1012.7
20260906051605 73 306 0.9 1.7 0.00 0.00 0.00 80 1012.7
20260906051036 73 0 0.0 0.9 0.00 0.00 0.00 80 1012.6
20260906050535 73 0 0.0 0.9 0.00 0.00 0.00 81 1012.5
20260906050114 73 0 0.0 0.9 0.00 0.00 0.00 81 1012.4
20260906045535 73 0 0.0 0.9 0.00 0.00 0.00 81 1012.5
20260906045036 73 0 0.0 0.9 0.00 0.00 0.00 81 1012.6
20260906044554 73 0 0.0 0.9 0.00 0.00 0.00 80 1012.7
20260906044037 73 0 0.0 0.0 0.00 0.00 0.00 79 1012.7
20260906043535 73 0 0.0 0.0 0.00 0.00 0.00 78 1012.6
20260906043110 73 0 0.0 0.9 0.00 0.00 0.00 78 1012.6
20260906042536 73 0 0.0 0.9 0.00 0.00 0.00 78 1012.5
20260906042035 73 0 0.0 0.0 0.00 0.00 0.00 78 1012.4
20260906041601 73 0 0.0 0.0 0.00 0.00 0.00 78 1012.5
20260906041036 73 0 0.0 0.0 0.00 0.00 0.00 78 1012.5
20260906040535 73 0 0.0 0.9 0.00 0.00 0.00 78 1012.5
20260906035539 73 0 0.0 0.9 0.00 0.00 0.00 78 1012.4
20260906035034 73 0 0.0 0.9 0.00 0.00 0.00 79 1012.4
20260906034559 73 0 0.0 0.9 0.00 0.00 0.00 79 1012.4
20260906034031 73 0 0.0 0.9 0.00 0.00 0.00 79 1012.4
20260906033535 73 0 0.0 0.9 0.00 0.00 0.00 80 1012.3
20260906033052 73 0 0.0 0.9 0.00 0.00 0.00 80 1012.4
20260906032535 74 0 0.0 0.9 0.00 0.00 0.00 80 1012.4
20260906032035 74 0 0.0 1.7 0.00 0.00 0.00 80 1012.3
20260906031624 74 0 0.0 1.7 0.00 0.00 0.00 80 1012.3
20260906031035 74 0 0.0 1.7 0.00 0.00 0.00 80 1012.3
20260906030536 74 0 0.0 1.7 0.00 0.00 0.00 79 1012.4
20260906030054 74 338 0.0 2.6 0.00 0.00 0.00 79 1012.3
20260906025536 74 0 0.0 2.6 0.00 0.00 0.00 79 1012.2
20260906025035 74 323 0.9 2.6 0.00 0.00 0.00 79 1012.2
20260906024556 74 332 0.0 2.6 0.00 0.00 0.00 78 1012.2
20260906024035 74 0 0.9 2.6 0.00 0.00 0.00 77 1012.1
20260906023536 75 0 0.0 1.7 0.00 0.00 0.00 77 1012.1
20260906023112 75 0 0.0 1.7 0.00 0.00 0.00 77 1012.1
20260906022539 75 0 0.0 1.7 0.00 0.00 0.00 76 1012.1
20260906022035 75 0 0.0 1.7 0.00 0.00 0.00 76 1012.0
20260906021605 75 344 0.0 2.6 0.00 0.00 0.00 75 1012.0
20260906021037 75 337 0.0 2.6 0.00 0.00 0.00 74 1012.0
20260906020538 75 302 0.0 3.5 0.00 0.00 0.00 74 1012.1
20260906015535 76 311 0.9 3.5 0.00 0.00 0.00 73 1012.0
20260906015035 76 320 1.7 4.3 0.00 0.00 0.00 73 1012.2
20260906014558 76 315 1.7 4.3 0.00 0.00 0.00 73 1012.1
20260906014035 76 298 1.7 4.3 0.00 0.00 0.00 73 1012.1
20260906013535 76 320 1.7 3.5 0.00 0.00 0.00 71 1012.1
20260906013056 77 305 0.9 3.5 0.00 0.00 0.00 70 1012.2
20260906012534 77 314 1.7 4.3 0.00 0.00 0.00 69 1012.2
20260906012035 77 283 1.7 4.3 0.00 0.00 0.00 70 1012.3
20260906011615 77 296 2.6 4.3 0.00 0.00 0.00 66 1012.3
20260906011035 78 296 1.7 4.3 0.00 0.00 0.00 65 1012.2
20260906010535 78 330 1.7 4.3 0.00 0.00 0.00 65 1012.2
20260906010053 79 306 1.7 3.5 0.00 0.00 0.00 63 1012.2
20260906005534 79 315 1.7 3.5 0.00 0.00 0.00 61 1012.2
20260906005032 80 265 1.7 3.5 0.00 0.00 0.00 56 1012.2
20260906004602 80 292 1.7 5.2 0.00 0.00 0.00 61 1012.1
20260906004036 80 298 1.7 5.2 0.00 0.00 0.00 63 1012.1
20260906003535 80 315 1.7 5.2 0.00 0.00 0.00 61 1012.1
20260906003057 80 315 1.7 4.3 0.00 0.00 0.00 61 1012.1
20260906002532 80 269 1.7 5.2 0.00 0.00 0.00 60 1012.1
20260906002035 80 293 1.7 6.1 0.00 0.00 0.00 59 1012.1
20260906001611 81 300 1.7 6.1 0.00 0.00 0.00 57 1012.2
20260906001032 81 295 1.7 6.1 0.00 0.00 0.00 60 1012.2
20260906000532 81 302 3.5 6.1 0.00 0.00 0.00 60 1012.1
20260906000109 81 278 1.7 7.8 0.00 0.00 0.00 61 1012.1
20260905235536 81 286 2.6 7.8 0.00 0.00 0.00 63 1012.2
20260905235033 81 275 2.6 7.0 0.00 0.00 0.00 62 1012.1
20260905234559 81 301 2.6 7.8 0.00 0.00 0.00 61 1012.1
20260905234035 81 322 2.6 7.8 0.00 0.00 0.00 63 1012.2
20260905233535 81 299 3.5 7.8 0.00 0.00 0.00 64 1012.2
20260905233107 81 312 3.5 7.8 0.00 0.00 0.00 64 1012.1
20260905232533 82 315 3.5 6.1 0.00 0.00 0.00 63 1012.1
20260905232035 82 326 2.6 7.0 0.00 0.00 0.00 60 1012.1
20260905231618 82 296 2.6 7.0 0.00 0.00 0.00 63 1012.1
20260905231037 82 315 3.5 7.0 0.00 0.00 0.00 62 1012.1
20260905230535 82 318 3.5 7.0 0.00 0.00 0.00 59 1012.1
20260905230108 82 309 3.5 7.0 0.00 0.00 0.00 58 1012.2
20260905225536 83 325 3.5 7.0 0.00 0.00 0.00 57 1012.2
20260905225035 83 298 3.5 7.0 0.00 0.00 0.00 57 1012.1
20260905224555 83 309 2.6 7.0 0.00 0.00 0.00 55 1012.2
20260905224039 83 296 3.5 7.8 0.00 0.00 0.00 55 1012.2
20260905223535 82 243 3.5 7.8 0.00 0.00 0.00 51 1012.2
20260905223105 82 282 3.5 7.8 0.00 0.00 0.00 55 1012.3
20260905222532 82 311 2.6 7.8 0.00 0.00 0.00 59 1012.3
20260905222034 82 308 3.5 7.0 0.00 0.00 0.00 59 1012.4
20260905221621 82 279 2.6 9.6 0.00 0.00 0.00 63 1012.4
20260905221032 81 297 3.5 9.6 0.00 0.00 0.00 62 1012.5
20260905220535 81 296 3.5 7.0 0.00 0.00 0.00 60 1012.6
20260905220057 81 276 3.5 7.0 0.00 0.00 0.00 63 1012.6
20260905215535 81 314 3.5 7.8 0.00 0.00 0.00 64 1012.6
20260905215035 81 296 3.5 7.8 0.00 0.00 0.00 64 1012.7
20260905214601 81 296 3.5 7.8 0.00 0.00 0.00 63 1012.7
20260905214035 81 311 4.3 7.8 0.00 0.00 0.00 62 1012.7
20260905213535 81 309 3.5 7.8 0.00 0.00 0.00 62 1012.7
20260905213105 81 302 3.5 7.8 0.00 0.00 0.00 64 1012.8
20260905212535 81 305 3.5 7.8 0.00 0.00 0.00 65 1012.8
20260905212035 81 292 3.5 7.0 0.00 0.00 0.00 67 1012.9
20260905211600 81 279 3.5 7.0 0.00 0.00 0.00 67 1012.9
20260905211035 81 285 2.6 7.0 0.00 0.00 0.00 67 1012.9
20260905210536 81 313 2.6 7.8 0.00 0.00 0.00 67 1012.9
20260905210108 81 343 2.6 7.8 0.00 0.00 0.00 66 1012.9
20260905205536 81 292 3.5 7.8 0.00 0.00 0.00 67 1012.9
20260905205035 81 277 3.5 7.0 0.00 0.00 0.00 66 1013.0
20260905204552 81 339 2.6 7.0 0.00 0.00 0.00 67 1013.0
20260905204034 81 321 2.6 7.0 0.00 0.00 0.00 68 1013.1
20260905203535 81 321 2.6 7.0 0.00 0.00 0.00 68 1013.1
20260905203102 80 314 1.7 7.0 0.00 0.00 0.00 68 1013.1
20260905202532 80 299 1.7 7.0 0.00 0.00 0.00 67 1013.1
20260905202032 80 293 1.7 7.0 0.00 0.00 0.00 70 1013.2
20260905201600 80 266 3.5 7.0 0.00 0.00 0.00 70 1013.2
20260905201032 79 320 2.6 6.1 0.00 0.00 0.00 70 1013.2
20260905200537 79 0 2.6 5.2 0.00 0.00 0.00 68 1013.3
20260905200118 79 310 2.6 5.2 0.00 0.00 0.00 68 1013.4
20260905195535 78 5 1.7 6.1 0.00 0.00 0.00 68 1013.4
20260905195035 78 317 2.6 6.1 0.00 0.00 0.00 70 1013.5
20260905194603 78 306 1.7 6.1 0.00 0.00 0.00 69 1013.5
20260905194035 78 313 0.9 6.1 0.00 0.00 0.00 69 1013.7
20260905193535 77 313 2.6 6.1 0.00 0.00 0.00 71 1013.6
20260905193100 77 329 1.7 6.1 0.00 0.00 0.00 72 1013.7
20260905192535 76 286 2.6 6.1 0.00 0.00 0.00 73 1013.8
20260905192035 76 308 2.6 4.3 0.00 0.00 0.00 73 1014.0
20260905191559 76 300 1.7 4.3 0.00 0.00 0.00 73 1014.0
20260905191034 76 300 1.7 4.3 0.00 0.00 0.00 73 1014.1
20260905190534 75 269 1.7 4.3 0.00 0.00 0.00 73 1014.0
20260905190100 75 288 1.7 4.3 0.00 0.00 0.00 74 1014.0
20260905185536 75 290 1.7 4.3 0.00 0.00 0.00 72 1014.1
20260905185031 75 323 1.7 4.3 0.00 0.00 0.00 73 1014.1
20260905184607 75 297 0.9 3.5 0.00 0.00 0.00 73 1014.1
20260905184037 75 0 2.6 4.3 0.00 0.00 0.00 72 1014.1
20260905183536 75 294 2.6 6.1 0.00 0.00 0.00 72 1014.1
20260905183052 75 338 1.7 6.1 0.00 0.00 0.00 72 1014.1
20260905182532 75 302 1.7 6.1 0.00 0.00 0.00 71 1014.3
20260905182037 75 305 1.7 6.1 0.00 0.00 0.00 71 1014.3
20260905181558 75 275 2.6 5.2 0.00 0.00 0.00 70 1014.2
20260905181032 75 304 2.6 6.1 0.00 0.00 0.00 67 1014.2
20260905180533 75 292 2.6 6.1 0.00 0.00 0.00 68 1014.2
20260905180112 75 273 1.7 4.3 0.00 0.00 0.00 68 1014.3
20260905175532 75 309 0.9 3.5 0.00 0.00 0.00 68 1014.2
20260905175034 75 311 0.9 3.5 0.00 0.00 0.00 68 1014.2
20260905174554 75 275 0.9 2.6 0.00 0.00 0.00 69 1014.2
20260905174034 74 306 0.9 2.6 0.00 0.00 0.00 69 1014.2
20260905173535 74 233 0.9 2.6 0.00 0.00 0.00 68 1014.2
20260905173127 74 277 0.9 2.6 0.00 0.00 0.00 69 1014.2
20260905172534 73 0 0.0 2.6 0.00 0.00 0.00 69 1014.0
20260905172032 73 0 0.9 2.6 0.00 0.00 0.00 71 1014.0
20260905171600 72 305 0.0 2.6 0.00 0.00 0.00 71 1014.0
20260905171032 72 303 0.9 2.6 0.00 0.00 0.00 70 1014.0
20260905170531 72 287 0.9 2.6 0.00 0.00 0.00 71 1014.0
20260905170058 71 257 0.9 2.6 0.00 0.00 0.00 71 1014.0
20260905165535 71 290 0.9 2.6 0.00 0.00 0.00 73 1014.0
20260905165035 70 311 0.0 2.6 0.00 0.00 0.00 75 1013.9
20260905164600 70 0 0.9 2.6 0.00 0.00 0.00 78 1014.0
20260905164034 69 311 0.0 2.6 0.00 0.00 0.00 79 1013.9
20260905163531 69 311 0.0 2.6 0.00 0.00 0.00 79 1013.9
20260905163101 68 302 0.0 2.6 0.00 0.00 0.00 80 1013.9
20260905162532 68 302 0.0 1.7 0.00 0.00 0.00 81 1013.9
20260905162031 67 318 0.0 2.6 0.00 0.00 0.00 83 1013.9
20260905161601 67 265 0.0 2.6 0.00 0.00 0.00 84 1013.8
20260905161035 67 265 0.0 2.6 0.00 0.00 0.00 85 1013.8
20260905160532 67 307 0.9 2.6 0.00 0.00 0.00 87 1013.8
20260905160101 66 0 0.0 1.7 0.00 0.00 0.00 88 1013.8
20260905155536 66 215 0.0 1.7 0.00 0.00 0.00 89 1013.9
20260905155031 66 0 0.0 1.7 0.00 0.00 0.00 89 1014.0
20260905154600 65 0 0.0 1.7 0.00 0.00 0.00 90 1013.9
20260905154038 65 0 0.0 1.7 0.00 0.00 0.00 90 1013.9
20260905153535 65 0 0.0 0.9 0.00 0.00 0.00 90 1013.9
20260905153051 64 0 0.0 0.9 0.00 0.00 0.00 90 1013.7
20260905152532 64 0 0.0 0.9 0.00 0.00 0.00 91 1013.7
20260905152032 64 0 0.0 0.9 0.00 0.00 0.00 91 1013.7
20260905151601 63 0 0.0 0.0 0.00 0.00 0.00 90 1013.7
20260905151036 63 0 0.0 0.9 0.00 0.00 0.00 90 1013.7
20260905150532 63 0 0.0 0.9 0.00 0.00 0.00 90 1013.6
20260905150054 63 0 0.0 0.9 0.00 0.00 0.00 90 1013.6
20260905145537 63 0 0.0 0.0 0.00 0.00 0.00 90 1013.5
20260905145035 63 0 0.0 0.0 0.00 0.00 0.00 90 1013.5
20260905144552 63 0 0.0 0.0 0.00 0.00 0.00 90 1013.5
20260905144034 62 0 0.0 0.0 0.00 0.00 0.00 90 1013.4
20260905143532 63 0 0.0 0.0 0.00 0.00 0.00 90 1013.2
20260905143052 63 0 0.0 0.9 0.00 0.00 0.00 90 1013.2
20260905142535 63 0 0.0 0.9 0.00 0.00 0.00 90 1013.2
20260905142032 62 0 0.0 0.9 0.00 0.00 0.00 90 1013.2
20260905141557 62 0 0.0 0.9 0.00 0.00 0.00 90 1013.0
20260905141034 62 0 0.0 0.9 0.00 0.00 0.00 90 1012.9
20260905140532 62 0 0.0 0.0 0.00 0.00 0.00 90 1012.9
20260905140100 62 0 0.0 0.0 0.00 0.00 0.00 90 1013.0
20260905135536 62 0 0.0 0.0 0.00 0.00 0.00 89 1013.0
20260905135034 62 0 0.0 0.0 0.00 0.00 0.00 89 1012.9
20260905134606 62 0 0.0 0.0 0.00 0.00 0.00 89 1012.8
20260905134032 62 0 0.0 0.0 0.00 0.00 0.00 89 1012.8
20260905133532 62 0 0.0 0.0 0.00 0.00 0.00 90 1012.7
20260905133100 62 0 0.0 0.0 0.00 0.00 0.00 90 1012.7
20260905132531 62 0 0.0 0.0 0.00 0.00 0.00 90 1012.7
20260905132031 62 0 0.0 0.0 0.00 0.00 0.00 90 1012.5
20260905131600 62 0 0.0 0.0 0.00 0.00 0.00 90 1012.5
20260905131033 62 0 0.0 0.0 0.00 0.00 0.00 90 1012.4
20260905130532 62 0 0.0 0.0 0.00 0.00 0.00 90 1012.4
20260905130055 62 0 0.0 0.0 0.00 0.00 0.00 90 1012.4
20260905125534 62 0 0.0 0.9 0.00 0.00 0.00 90 1012.4
20260905125032 62 0 0.0 0.9 0.00 0.00 0.00 90 1012.5
20260905124604 62 0 0.0 0.9 0.00 0.00 0.00 90 1012.5
20260905124034 62 0 0.0 0.9 0.00 0.00 0.00 90 1012.5
20260905123531 62 0 0.0 0.9 0.00 0.00 0.00 90 1012.5
20260905123106 62 0 0.0 0.9 0.00 0.00 0.00 90 1012.5
20260905122532 62 0 0.0 0.9 0.00 0.00 0.00 90 1012.6
20260905122031 62 0 0.0 0.0 0.00 0.00 0.00 89 1012.6
20260905121559 62 0 0.0 0.0 0.00 0.00 0.00 89 1012.7
20260905121032 63 0 0.0 0.0 0.00 0.00 0.00 89 1012.7
20260905120531 63 0 0.0 0.0 0.00 0.00 0.00 89 1012.6
20260905120105 63 0 0.0 0.0 0.00 0.00 0.00 89 1012.5
20260905115532 63 0 0.0 0.0 0.00 0.00 0.00 90 1012.5
20260905115032 63 0 0.0 0.0 0.00 0.00 0.00 90 1012.4
20260905114611 63 0 0.0 0.0 0.00 0.00 0.00 90 1012.4
20260905114031 63 0 0.0 0.0 0.00 0.00 0.00 90 1012.4
20260905113535 63 0 0.0 0.0 0.00 0.00 0.00 90 1012.4
20260905113100 63 0 0.0 0.9 0.00 0.00 0.00 90 1012.5
20260905112532 63 0 0.0 0.9 0.00 0.00 0.00 90 1012.5
20260905112032 63 0 0.0 1.7 0.00 0.00 0.00 90 1012.6
20260905111646 63 0 0.0 1.7 0.00 0.00 0.00 90 1012.6
20260905111032 63 0 0.0 1.7 0.00 0.00 0.00 90 1012.7
20260905110531 63 0 0.0 1.7 0.00 0.00 0.00 90 1012.8
20260905110051 63 0 0.0 1.7 0.00 0.00 0.00 90 1012.8
20260905105532 63 0 0.0 0.9 0.00 0.00 0.00 89 1012.8
20260905105031 63 0 0.0 0.9 0.00 0.00 0.00 89 1012.7
20260905104550 63 0 0.0 0.9 0.00 0.00 0.00 89 1012.7
20260905104031 63 0 0.0 1.7 0.00 0.00 0.00 89 1012.8
20260905103531 63 0 0.0 1.7 0.00 0.00 0.00 89 1012.8
20260905103102 63 0 0.0 1.7 0.00 0.00 0.00 89 1012.7
20260905102532 63 0 0.0 0.0 0.00 0.00 0.00 89 1012.8
20260905102032 63 0 0.0 0.0 0.00 0.00 0.00 89 1012.8
20260905101556 63 0 0.0 0.9 0.00 0.00 0.00 89 1012.8
20260905101031 63 0 0.0 0.9 0.00 0.00 0.00 89 1012.7
20260905100531 63 0 0.0 1.7 0.00 0.00 0.00 89 1012.8
20260905100058 63 0 0.0 1.7 0.00 0.00 0.00 89 1012.7
20260905095531 63 0 0.0 0.9 0.00 0.00 0.00 89 1012.7
20260905095032 63 0 0.0 0.9 0.00 0.00 0.00 89 1012.9
20260905094552 63 0 0.0 0.9 0.00 0.00 0.00 89 1012.9
20260905094036 64 0 0.0 0.0 0.00 0.00 0.00 89 1012.8
20260905093532 64 0 0.0 0.0 0.00 0.00 0.00 89 1012.8
20260905093117 64 0 0.0 0.0 0.00 0.00 0.00 89 1012.8
20260905092533 64 0 0.0 0.0 0.00 0.00 0.00 89 1012.9
20260905092032 64 0 0.0 0.9 0.00 0.00 0.00 88 1012.9
20260905091556 64 0 0.0 0.9 0.00 0.00 0.00 88 1012.8
20260905091032 64 0 0.0 0.0 0.00 0.00 0.00 88 1012.9
20260905090531 64 0 0.0 0.0 0.00 0.00 0.00 88 1012.8
20260905085532 64 0 0.0 0.0 0.00 0.00 0.00 88 1012.9
20260905085035 64 0 0.0 0.0 0.00 0.00 0.00 88 1013.0
20260905084603 64 0 0.0 0.0 0.00 0.00 0.00 88 1013.0
20260905084031 64 0 0.0 0.0 0.00 0.00 0.00 88 1013.2
20260905083531 64 0 0.0 0.0 0.00 0.00 0.00 88 1013.2
20260905083058 64 0 0.0 0.9 0.00 0.00 0.00 87 1013.3
20260905082533 64 0 0.0 0.9 0.00 0.00 0.00 87 1013.2
20260905082032 64 0 0.0 0.0 0.00 0.00 0.00 87 1013.3
20260905081552 64 0 0.0 0.0 0.00 0.00 0.00 87 1013.4
20260905081033 64 0 0.0 0.0 0.00 0.00 0.00 87 1013.5
20260905080532 64 0 0.0 0.0 0.00 0.00 0.00 87 1013.5
20260905080054 64 0 0.0 0.0 0.00 0.00 0.00 86 1013.5
20260905075533 64 0 0.0 0.0 0.00 0.00 0.00 87 1013.6
20260905075034 64 0 0.0 0.0 0.00 0.00 0.00 86 1013.6
20260905074550 65 0 0.0 0.0 0.00 0.00 0.00 87 1013.8
20260905074032 65 0 0.0 0.0 0.00 0.00 0.00 87 1013.7
20260905073534 65 0 0.0 0.0 0.00 0.00 0.00 87 1013.6